EN

Hourly Weather Lagan

Today, 3 August, Tuesday

Time Temperature Precipitation Wind Pressure Humidity
00:00 +29°C° 0 mm 3 mps 760 mmHg 64%
01:00 +28°C° 0 mm 3 mps 760 mmHg 64%
02:00 +28°C° 0 mm 2 mps 760 mmHg 64%
03:00 +27°C° 0 mm 1 mps 760 mmHg 64%
04:00 +28°C° 0 mm 1 mps 760 mmHg 59%
05:00 +29°C° 0 mm 2 mps 761 mmHg 53%
06:00 +30°C° 0 mm 2 mps 761 mmHg 48%
07:00 +33°C° 0 mm 3 mps 761 mmHg 40%
08:00 +35°C° 0 mm 4 mps 761 mmHg 33%
09:00 +37°C° 0 mm 5 mps 761 mmHg 25%
10:00 +39°C° 0 mm 5 mps 761 mmHg 24%
11:00 +40°C° 0 mm 5 mps 761 mmHg 22%
12:00 +40°C° 0 mm 5 mps 761 mmHg 21%
13:00 +40°C° 0 mm 5 mps 760 mmHg 21%
14:00 +40°C° 0 mm 5 mps 760 mmHg 20%
15:00 +40°C° 0 mm 5 mps 760 mmHg 20%
16:00 +39°C° 0 mm 5 mps 760 mmHg 23%
17:00 +37°C° 0 mm 5 mps 760 mmHg 26%
18:00 +36°C° 0 mm 5 mps 760 mmHg 29%
19:00 +35°C° 0 mm 4 mps 760 mmHg 37%
20:00 +33°C° 0 mm 4 mps 760 mmHg 45%
21:00 +30°C° 0 mm 3 mps 760 mmHg 53%
22:00 +30°C° 0 mm 3 mps 760 mmHg 55%
23:00 +30°C° 0 mm 3 mps 760 mmHg 56%

Tomorrow, 4 August, Wednesday

Time Temperature Precipitation Wind Pressure Humidity
00:00 +29°C° 0 mm 3 mps 760 mmHg 58%
01:00 +29°C° 0 mm 3 mps 760 mmHg 57%
02:00 +29°C° 0 mm 3 mps 760 mmHg 56%
03:00 +28°C° 0 mm 3 mps 760 mmHg 56%
04:00 +29°C° 0 mm 2 mps 760 mmHg 50%
05:00 +30°C° 0 mm 2 mps 760 mmHg 44%
06:00 +30°C° 0 mm 1 mps 760 mmHg 38%
07:00 +32°C° 0 mm 2 mps 761 mmHg 31%
08:00 +36°C° 0 mm 2 mps 761 mmHg 25%
09:00 +38°C° 0 mm 2 mps 761 mmHg 19%
10:00 +39°C° 0 mm 3 mps 761 mmHg 17%
11:00 +40°C° 0 mm 3 mps 760 mmHg 16%
12:00 +42°C° 0 mm 4 mps 760 mmHg 15%
13:00 +42°C° 0 mm 4 mps 760 mmHg 15%
14:00 +41°C° 0 mm 5 mps 760 mmHg 15%
15:00 +41°C° 0 mm 5 mps 760 mmHg 15%
16:00 +40°C° 0 mm 5 mps 760 mmHg 18%
17:00 +39°C° 0 mm 5 mps 760 mmHg 21%
18:00 +37°C° 0 mm 5 mps 760 mmHg 24%
19:00 +35°C° 0 mm 5 mps 760 mmHg 32%
20:00 +33°C° 0 mm 5 mps 760 mmHg 39%
21:00 +32°C° 0 mm 4 mps 760 mmHg 46%
22:00 +32°C° 0 mm 4 mps 760 mmHg 46%
23:00 +30°C° 0 mm 4 mps 760 mmHg 46%

Day after tomorrow, 5 August, Thursday

Time Temperature Precipitation Wind Pressure Humidity
00:00 +30°C° 0 mm 4 mps 760 mmHg 45%
01:00 +29°C° 0 mm 3 mps 760 mmHg 44%
02:00 +29°C° 0 mm 2 mps 760 mmHg 42%
03:00 +28°C° 0 mm 1 mps 760 mmHg 40%
04:00 +29°C° 0 mm 1 mps 760 mmHg 39%
05:00 +30°C° 0 mm 1 mps 760 mmHg 38%
06:00 +30°C° 0 mm 1 mps 760 mmHg 37%
07:00 +32°C° 0 mm 1 mps 760 mmHg 32%
08:00 +34°C° 0 mm 1 mps 760 mmHg 28%
09:00 +36°C° 0 mm 1 mps 760 mmHg 24%
10:00 +37°C° 0 mm 1 mps 760 mmHg 22%
11:00 +39°C° 0 mm 2 mps 760 mmHg 20%
12:00 +40°C° 0 mm 2 mps 760 mmHg 18%
13:00 +40°C° 0 mm 3 mps 760 mmHg 19%
14:00 +41°C° 0 mm 4 mps 759 mmHg 20%
15:00 +41°C° 0 mm 4 mps 759 mmHg 20%
16:00 +40°C° 0 mm 4 mps 759 mmHg 22%
17:00 +38°C° 0 mm 3 mps 759 mmHg 24%
18:00 +37°C° 0 mm 2 mps 760 mmHg 26%
19:00 +36°C° 0 mm 2 mps 760 mmHg 28%
20:00 +35°C° 0 mm 2 mps 760 mmHg 30%
21:00 +34°C° 0 mm 2 mps 760 mmHg 33%
22:00 +33°C° 0 mm 3 mps 760 mmHg 35%
23:00 +33°C° 0 mm 3 mps 760 mmHg 37%

6 August, Friday

Time Temperature Precipitation Wind Pressure Humidity
00:00 +32°C° 0 mm 4 mps 760 mmHg 38%
01:00 +32°C° 0 mm 4 mps 760 mmHg 40%
02:00 +30°C° 0 mm 4 mps 760 mmHg 41%
03:00 +30°C° 0 mm 5 mps 760 mmHg 43%
04:00 +30°C° 0 mm 5 mps 760 mmHg 44%
05:00 +30°C° 0 mm 5 mps 760 mmHg 44%
06:00 +30°C° 0 mm 5 mps 760 mmHg 45%
07:00 +33°C° 0 mm 6 mps 760 mmHg 42%
08:00 +34°C° 0 mm 6 mps 760 mmHg 38%
09:00 +36°C° 0 mm 6 mps 760 mmHg 34%
10:00 +36°C° 0 mm 6 mps 760 mmHg 33%
11:00 +38°C° 0 mm 6 mps 760 mmHg 32%
12:00 +38°C° 0 mm 6 mps 760 mmHg 31%
13:00 +38°C° 0 mm 6 mps 760 mmHg 31%
14:00 +38°C° 0 mm 6 mps 759 mmHg 31%
15:00 +38°C° 0 mm 6 mps 759 mmHg 31%
16:00 +36°C° 0 mm 6 mps 759 mmHg 34%
17:00 +35°C° 0 mm 5 mps 759 mmHg 37%
18:00 +34°C° 0 mm 5 mps 759 mmHg 40%
19:00 +33°C° 0 mm 5 mps 759 mmHg 46%
20:00 +32°C° 0 mm 4 mps 759 mmHg 53%
21:00 +30°C° 0 mm 3 mps 759 mmHg 59%
22:00 +30°C° 0 mm 3 mps 759 mmHg 59%
23:00 +30°C° 0 mm 3 mps 759 mmHg 59%

7 August, Saturday

Time Temperature Precipitation Wind Pressure Humidity
00:00 +29°C° 0 mm 3 mps 758 mmHg 59%
01:00 +29°C° 0 mm 4 mps 758 mmHg 58%
02:00 +29°C° 0 mm 5 mps 758 mmHg 56%
03:00 +29°C° 0 mm 5 mps 758 mmHg 54%
04:00 +29°C° 0 mm 6 mps 758 mmHg 52%
05:00 +30°C° 0 mm 6 mps 758 mmHg 49%
06:00 +30°C° 0 mm 7 mps 758 mmHg 46%
07:00 +33°C° 0 mm 8 mps 758 mmHg 44%
08:00 +34°C° 0 mm 8 mps 758 mmHg 42%
09:00 +35°C° 0 mm 9 mps 758 mmHg 40%
10:00 +37°C° 0 mm 9 mps 758 mmHg 38%
11:00 +37°C° 0 mm 10 mps 758 mmHg 36%
12:00 +38°C° 0 mm 10 mps 758 mmHg 34%
13:00 +37°C° 0 mm 10 mps 758 mmHg 35%
14:00 +37°C° 0 mm 10 mps 758 mmHg 36%
15:00 +37°C° 0 mm 10 mps 758 mmHg 37%
16:00 +36°C° 0 mm 10 mps 757 mmHg 38%
17:00 +34°C° 0 mm 10 mps 757 mmHg 39%
18:00 +34°C° 0 mm 9 mps 757 mmHg 40%
19:00 +33°C° 0 mm 8 mps 758 mmHg 42%
20:00 +32°C° 0 mm 8 mps 758 mmHg 44%
21:00 +32°C° 0 mm 7 mps 758 mmHg 46%
22:00 +32°C° 0 mm 6 mps 758 mmHg 47%
23:00 +30°C° 0 mm 6 mps 758 mmHg 48%

8 August, Sunday

Time Temperature Precipitation Wind Pressure Humidity
00:00 +30°C° 0 mm 5 mps 758 mmHg 49%
01:00 +30°C° 0 mm 5 mps 758 mmHg 50%
02:00 +30°C° 0 mm 5 mps 758 mmHg 50%
03:00 +29°C° 0 mm 5 mps 758 mmHg 51%
04:00 +30°C° 0 mm 4 mps 758 mmHg 51%
05:00 +30°C° 0 mm 4 mps 758 mmHg 52%
06:00 +30°C° 0 mm 4 mps 758 mmHg 52%
07:00 +32°C° 0 mm 4 mps 758 mmHg 50%
08:00 +32°C° 0 mm 4 mps 759 mmHg 48%
09:00 +33°C° 0 mm 5 mps 759 mmHg 46%
10:00 +34°C° 0 mm 5 mps 759 mmHg 43%
11:00 +35°C° 0 mm 5 mps 759 mmHg 40%
12:00 +36°C° 0 mm 5 mps 759 mmHg 37%
13:00 +37°C° 0 mm 5 mps 759 mmHg 35%
14:00 +39°C° 0 mm 5 mps 758 mmHg 32%
15:00 +40°C° 0 mm 4 mps 758 mmHg 30%
16:00 +37°C° 0 mm 4 mps 758 mmHg 33%
17:00 +36°C° 0 mm 3 mps 758 mmHg 36%
18:00 +35°C° 0 mm 3 mps 758 mmHg 40%
19:00 +34°C° 0 mm 3 mps 758 mmHg 45%
20:00 +33°C° 0 mm 3 mps 759 mmHg 50%
21:00 +30°C° 0 mm 2 mps 759 mmHg 55%
22:00 +30°C° 0 mm 2 mps 759 mmHg 51%
23:00 +31°C° 0 mm 2 mps 758 mmHg 47%
Show more